Time,TemperatureF,DewpointF,PressureIn,WindDirection,WindDirectionDegrees,WindSpeedMPH,WindSpeedGustMPH,Humidity,HourlyPrecipIn,Conditions,Clouds,dailyrainin,SolarRadiationWatts/m^2,SoftwareType,DateUTC
2013-04-04 00:00:00,54.0,52.0,-100.00,NNE,16,1.0,-999.0,92,-99.99,,,-99.99,0.000000,,2013-04-04 05:00:00,
2013-04-04 00:53:00,54.0,52.0,-100.00,NNE,16,1.0,-999.0,92,-99.99,,,-99.99,0.000000,,2013-04-04 05:53:00,
2013-04-04 03:00:00,54.0,52.0,-100.00,NNE,14,0.0,-999.0,94,-99.99,,,-99.99,0.000000,,2013-04-04 08:00:00,
2013-04-04 03:52:00,54.0,52.0,-100.00,NNE,14,0.0,-999.0,94,-99.99,,,-99.99,0.000000,,2013-04-04 08:52:00,
2013-04-04 04:00:00,54.0,53.0,-100.00,NE,36,0.0,-999.0,95,-99.99,,,-99.99,0.000000,,2013-04-04 09:00:00,
2013-04-04 04:54:00,54.0,53.0,-100.00,NE,36,0.0,-999.0,95,-99.99,,,-99.99,0.000000,,2013-04-04 09:54:00,
2013-04-04 06:00:00,53.0,52.0,-100.00,North,350,0.0,-999.0,98,-99.99,,,-99.99,0.000000,,2013-04-04 11:00:00,
2013-04-04 06:54:00,53.0,52.0,-100.00,North,350,0.0,-999.0,98,-99.99,,,-99.99,0.000000,,2013-04-04 11:54:00,
2013-04-04 07:00:00,52.0,52.0,-100.00,NNW,345,0.0,-999.0,98,-99.99,,,-99.99,0.640000,,2013-04-04 12:00:00,
2013-04-04 07:52:00,52.0,52.0,-100.00,NNW,345,0.0,-999.0,98,-99.99,,,-99.99,0.640000,,2013-04-04 12:52:00,
2013-04-04 08:00:00,53.0,52.0,-100.00,North,351,0.0,-999.0,98,-99.99,,,-99.99,20.350000,,2013-04-04 13:00:00,
2013-04-04 08:53:00,53.0,52.0,-100.00,North,351,0.0,-999.0,98,-99.99,,,-99.99,20.350000,,2013-04-04 13:53:00,
2013-04-04 09:00:00,55.0,53.0,-100.00,North,2,0.0,-999.0,95,-99.99,,,-99.99,86.449997,,2013-04-04 14:00:00,
2013-04-04 09:53:00,55.0,53.0,-100.00,North,2,0.0,-999.0,95,-99.99,,,-99.99,86.449997,,2013-04-04 14:53:00,
2013-04-04 10:00:00,57.0,54.0,-100.00,NW,324,0.0,-999.0,90,-99.99,,,-99.99,125.019997,,2013-04-04 15:00:00,
2013-04-04 10:54:00,57.0,54.0,-100.00,NW,324,0.0,-999.0,90,-99.99,,,-99.99,125.019997,,2013-04-04 15:54:00,
2013-04-04 11:00:00,60.0,55.0,-100.00,WNW,294,1.0,-999.0,84,-99.99,,,-99.99,216.029999,,2013-04-04 16:00:00,
2013-04-04 11:54:00,60.0,55.0,-100.00,WNW,294,1.0,-999.0,84,-99.99,,,-99.99,216.029999,,2013-04-04 16:54:00,
2013-04-04 12:00:00,61.0,56.0,-100.00,West,269,5.0,-999.0,82,-99.99,,,-99.99,222.589996,,2013-04-04 17:00:00,
2013-04-04 12:53:00,61.0,56.0,-100.00,West,269,5.0,-999.0,82,-99.99,,,-99.99,222.589996,,2013-04-04 17:53:00,
2013-04-04 13:00:00,65.0,56.0,-100.00,WSW,245,5.0,-999.0,71,-99.99,,,-99.99,454.579987,,2013-04-04 18:00:00,
2013-04-04 13:52:00,65.0,56.0,-100.00,WSW,245,5.0,-999.0,71,-99.99,,,-99.99,454.579987,,2013-04-04 18:52:00,
2013-04-04 14:00:00,66.0,56.0,-100.00,West,270,4.0,-999.0,69,-99.99,,,-99.99,581.109985,,2013-04-04 19:00:00,
2013-04-04 14:52:00,66.0,56.0,-100.00,West,270,4.0,-999.0,69,-99.99,,,-99.99,581.109985,,2013-04-04 19:52:00,
2013-04-04 15:00:00,64.0,56.0,-100.00,WSW,257,7.0,-999.0,75,-99.99,,,-99.99,231.800003,,2013-04-04 20:00:00,
2013-04-04 15:53:00,64.0,56.0,-100.00,WSW,257,7.0,-999.0,75,-99.99,,,-99.99,231.800003,,2013-04-04 20:53:00,
2013-04-04 16:00:00,68.0,56.0,-100.00,WNW,287,4.0,-999.0,65,-99.99,,,-99.99,497.040009,,2013-04-04 21:00:00,
2013-04-04 16:53:00,68.0,56.0,-100.00,WNW,287,4.0,-999.0,65,-99.99,,,-99.99,497.040009,,2013-04-04 21:53:00,
2013-04-04 17:00:00,65.0,56.0,-100.00,WNW,301,3.0,-999.0,72,-99.99,,,-99.99,279.769989,,2013-04-04 22:00:00,
2013-04-04 17:53:00,65.0,56.0,-100.00,WNW,301,3.0,-999.0,72,-99.99,,,-99.99,279.769989,,2013-04-04 22:53:00,
2013-04-04 18:00:00,62.0,56.0,-100.00,NW,318,1.0,-999.0,79,-99.99,,,-99.99,56.869999,,2013-04-04 23:00:00,
2013-04-04 18:52:00,62.0,56.0,-100.00,NW,318,1.0,-999.0,79,-99.99,,,-99.99,56.869999,,2013-04-04 23:52:00,
2013-04-04 19:00:00,60.0,55.0,-100.00,NW,325,1.0,-999.0,84,-99.99,,,-99.99,17.570000,,2013-04-05 00:00:00,
2013-04-04 19:52:00,60.0,55.0,-100.00,NW,325,1.0,-999.0,84,-99.99,,,-99.99,17.570000,,2013-04-05 00:52:00,
2013-04-04 20:00:00,58.0,54.0,-100.00,NW,322,1.0,-999.0,87,-99.99,,,-99.99,0.450000,,2013-04-05 01:00:00,
2013-04-04 20:53:00,58.0,54.0,-100.00,NW,322,1.0,-999.0,87,-99.99,,,-99.99,0.450000,,2013-04-05 01:53:00,
2013-04-04 21:00:00,56.0,52.0,-100.00,NNW,333,1.0,-999.0,89,-99.99,,,-99.99,0.000000,,2013-04-05 02:00:00,
2013-04-04 21:52:00,56.0,52.0,-100.00,NNW,333,1.0,-999.0,89,-99.99,,,-99.99,0.000000,,2013-04-05 02:52:00,
2013-04-04 22:00:00,55.0,51.0,-100.00,NNW,336,1.0,-999.0,88,-99.99,,,-99.99,0.000000,,2013-04-05 03:00:00,
2013-04-04 22:54:00,55.0,51.0,-100.00,NNW,336,1.0,-999.0,88,-99.99,,,-99.99,0.000000,,2013-04-05 03:54:00,
2013-04-04 23:00:00,54.0,50.0,-100.00,NNW,328,1.0,-999.0,87,-99.99,,,-99.99,0.000000,,2013-04-05 04:00:00,
2013-04-04 23:52:00,54.0,50.0,-100.00,NNW,328,1.0,-999.0,87,-99.99,,,-99.99,0.000000,,2013-04-05 04:52:00,